Location: Unspecified
(35.7250°N, 0.0000°E)
Time: 13:32:33
(UTC+00:00)

Courier 1B Rocket - Pass Details

Date: 27 June 2019
Orbit: 920 x 1202 km, 28.2° (Epoch: 20 July)

Event Time Altitude Azimuth Distance (km) Brightness Sun altitude
Exits shadow 00:46:01 11° 112° (ESE) 2,912 7.4 -30.1°
Drops below altitude 10° 00:46:09 10° 111° (ESE) 2,943 7.4 -30.1°
Sets 00:49:38 0° 95° (E) 3,866 8.2 -29.9°
